Weather History for New Haven, CT

Change the Weather History Date:

Wednesday, May 28, 2014

  Actual Average Record
Temperature  
Mean Temperature 55 °F -  
Max Temperature 59 °F 67 °F 90 °F (1977)
Min Temperature 51 °F 51 °F 43 °F (1974)
Degree Days  
Heating Degree Days 10    
Growing Degree Days 5 (Base 50)    
Moisture  
Dew Point 49 °F    
Average Humidity 81    
Maximum Humidity 94    
Minimum Humidity 71    
Precipitation  
Precipitation 0.11 in - - ()
Sea Level Pressure  
Sea Level Pressure 29.99 in    
Wind  
Wind Speed 8 mph (NNE)    
Max Wind Speed 14 mph    
Max Gust Speed 22 mph    
Visibility 10 miles    
Events Rain    
Averages and records for this station are not official NWS values.
T = Trace of Precipitation, MM = Missing Value Source: NWS Daily Summary

Daily Weather History Graph

Daily Weather History Graph

Search for Another Location

Airport:

Trip Planner

Search our weather history database for the weather conditions in past years. The results will help you decide how hot, cold, wet, or windy it might be!

Date:

Astronomy

May. 28, 2014 Rise Set
Actual Time 5:22 AM EDT 8:15 PM EDT
Civil Twilight 4:50 AM EDT 8:47 PM EDT
Nautical Twilight 4:08 AM EDT 9:29 PM EDT
Astronomical Twilight 3:21 AM EDT 10:17 PM EDT
Moon 5:27 AM EDT (5/28) 8:10 PM EDT (5/28)
Length of Visible Light 15h 57m
Length of Day
14h 52m
Waning Crescent, 0% of the Moon is Illuminated
May 28
Waning Crescent
May 28
New
Jun 5
First Quarter
Jun 13
Full
Jun 19
Last Quarter

Hourly Weather History & Observations

Time (EDT) Temp. Dew Point Humidity Pressure Visibility Wind Dir Wind Speed Gust Speed Precip Events Conditions
12:32 AM 57.2 °F 55.4 °F 94% 29.85 in 9.0 mi Calm Calm - N/A   Overcast
12:40 AM 57.2 °F 55.4 °F 94% 29.85 in 9.0 mi Calm Calm - N/A   Overcast
12:53 AM 57.9 °F 55.9 °F 93% 29.85 in 9.0 mi Calm Calm - N/A   Overcast
1:28 AM 57.2 °F 55.4 °F 94% 29.85 in 9.0 mi NNE 13.8 mph 18.4 mph N/A   Overcast
1:53 AM 57.0 °F 54.0 °F 89% 29.85 in 8.0 mi NNE 9.2 mph - N/A   Overcast
2:53 AM 55.9 °F 52.0 °F 87% 29.87 in 10.0 mi NNE 11.5 mph - N/A   Overcast
3:53 AM 55.0 °F 51.1 °F 86% 29.87 in 10.0 mi NNE 12.7 mph - N/A   Overcast
4:53 AM 54.0 °F 50.0 °F 86% 29.87 in 10.0 mi North 10.4 mph - N/A   Overcast
5:33 AM 53.6 °F 48.2 °F 82% 29.88 in 10.0 mi NE 10.4 mph - N/A   Overcast
5:53 AM 54.0 °F 48.9 °F 83% 29.89 in 10.0 mi NE 9.2 mph - N/A   Overcast
6:53 AM 54.0 °F 48.0 °F 80% 29.91 in 10.0 mi NNE 13.8 mph 18.4 mph N/A   Overcast
7:53 AM 54.0 °F 48.9 °F 83% 29.92 in 10.0 mi NNE 9.2 mph - N/A   Overcast
8:53 AM 55.0 °F 48.0 °F 77% 29.94 in 10.0 mi NE 11.5 mph - N/A   Overcast
9:53 AM 54.0 °F 48.0 °F 80% 29.97 in 10.0 mi NNE 11.5 mph - 0.00 in Rain Light Rain
10:18 AM 53.6 °F 48.2 °F 82% 29.97 in 4.0 mi NNE 9.2 mph - 0.07 in Rain Heavy Rain
10:53 AM 55.0 °F 51.1 °F 86% 29.98 in 10.0 mi NNE 11.5 mph - 0.11 in   Overcast
11:53 AM 55.0 °F 51.1 °F 86% 29.99 in 10.0 mi NNE 9.2 mph - 0.00 in   Overcast
12:53 PM 57.0 °F 51.1 °F 81% 30.00 in 10.0 mi NNE 9.2 mph - N/A   Overcast
1:53 PM 57.2 °F 51.8 °F 82% 30.01 in 10.0 mi NNE 12.7 mph - N/A   Overcast
2:29 PM 57.2 °F 50.0 °F 77% 30.02 in 10.0 mi North 8.1 mph - N/A   Overcast
2:53 PM 59.0 °F 50.0 °F 72% 30.03 in 10.0 mi NNE 10.4 mph - N/A   Overcast
3:53 PM 57.0 °F 48.9 °F 74% 30.05 in 10.0 mi NE 13.8 mph 20.7 mph N/A   Overcast
4:53 PM 55.9 °F 46.9 °F 72% 30.08 in 10.0 mi ENE 11.5 mph 21.9 mph N/A   Overcast
5:53 PM 55.4 °F 46.4 °F 72% 30.09 in 10.0 mi NE 6.9 mph - N/A   Overcast
6:53 PM 55.4 °F 46.4 °F 72% 30.11 in 10.0 mi NE 11.5 mph - N/A   Overcast
7:53 PM 54.0 °F 45.0 °F 72% 30.13 in 10.0 mi NNE 11.5 mph - N/A   Overcast
8:53 PM 53.1 °F 44.1 °F 71% 30.15 in 10.0 mi NE 11.5 mph 19.6 mph N/A   Overcast
9:53 PM 53.1 °F 44.1 °F 71% 30.18 in 10.0 mi NE 5.8 mph - N/A   Overcast
10:53 PM 52.0 °F 44.1 °F 74% 30.19 in 10.0 mi NNE 10.4 mph - N/A   Overcast
11:42 PM 51.8 °F 44.6 °F 76% 30.19 in 10.0 mi NE 10.4 mph - N/A   Overcast
11:53 PM 52.0 °F 44.1 °F 74% 30.19 in 10.0 mi NNE 8.1 mph - N/A   Overcast